Year,Month,Day,Hour,Minute,Value (Times are PST for windspeed in km/hr)
2016,07,04,00,00,12.10
2016,07,04,00,01,8.00
2016,07,04,00,02,9.50
2016,07,04,00,03,12.30
2016,07,04,00,04,11.70
2016,07,04,00,05,9.90
2016,07,04,00,06,5.50
2016,07,04,00,07,6.70
2016,07,04,00,08,9.70
2016,07,04,00,09,10.30
2016,07,04,00,10,11.20
2016,07,04,00,11,8.00
2016,07,04,00,12,12.40
2016,07,04,00,13,10.10
2016,07,04,00,14,5.60
2016,07,04,00,15,7.20
2016,07,04,00,16,7.80
2016,07,04,00,17,8.10
2016,07,04,00,18,8.50
2016,07,04,00,19,7.00
2016,07,04,00,20,10.70
2016,07,04,00,21,9.80
2016,07,04,00,22,12.20
2016,07,04,00,23,10.50
2016,07,04,00,24,7.40
2016,07,04,00,25,7.70
2016,07,04,00,26,8.70
2016,07,04,00,27,9.90
2016,07,04,00,28,12.30
2016,07,04,00,29,11.90
2016,07,04,00,30,11.40
2016,07,04,00,31,14.00
2016,07,04,00,32,10.80
2016,07,04,00,33,11.60
2016,07,04,00,34,13.20
2016,07,04,00,35,12.30
2016,07,04,00,36,12.20
2016,07,04,00,37,9.30
2016,07,04,00,38,10.60
2016,07,04,00,39,10.20
2016,07,04,00,40,9.50
2016,07,04,00,41,9.40
2016,07,04,00,42,8.90
2016,07,04,00,43,6.70
2016,07,04,00,44,6.10
2016,07,04,00,45,7.40
2016,07,04,00,46,9.40
2016,07,04,00,47,8.70
2016,07,04,00,48,10.20
2016,07,04,00,49,13.50
2016,07,04,00,50,12.60
2016,07,04,00,51,10.00
2016,07,04,00,52,12.30
2016,07,04,00,53,12.00
2016,07,04,00,54,10.50
2016,07,04,00,55,9.90
2016,07,04,00,56,10.30
2016,07,04,00,57,8.30
2016,07,04,00,58,11.40
2016,07,04,00,59,8.70
2016,07,04,01,00,13.20
2016,07,04,01,01,10.10
2016,07,04,01,02,11.00
2016,07,04,01,03,6.60
2016,07,04,01,04,7.50
2016,07,04,01,05,10.10
2016,07,04,01,06,7.10
2016,07,04,01,07,5.70
2016,07,04,01,08,6.40
2016,07,04,01,09,8.70
2016,07,04,01,10,13.20
2016,07,04,01,11,13.10
2016,07,04,01,12,8.90
2016,07,04,01,13,8.00
2016,07,04,01,14,7.60
2016,07,04,01,15,8.00
2016,07,04,01,16,5.60
2016,07,04,01,17,6.60
2016,07,04,01,18,7.70
2016,07,04,01,19,9.10
2016,07,04,01,20,6.10
2016,07,04,01,21,7.80
2016,07,04,01,22,9.50
2016,07,04,01,23,10.70
2016,07,04,01,24,6.40
2016,07,04,01,25,9.80
2016,07,04,01,26,9.80
2016,07,04,01,27,7.80
2016,07,04,01,28,4.80
2016,07,04,01,29,4.80
2016,07,04,01,30,4.80
2016,07,04,01,31,8.40
2016,07,04,01,32,6.80
2016,07,04,01,33,7.00
2016,07,04,01,34,5.70
2016,07,04,01,35,4.20
2016,07,04,01,36,5.90
2016,07,04,01,37,8.40
2016,07,04,01,38,8.80
2016,07,04,01,39,5.60
2016,07,04,01,40,6.30
2016,07,04,01,41,4.60
2016,07,04,01,42,7.60
2016,07,04,01,43,8.30
2016,07,04,01,44,9.20
2016,07,04,01,45,6.10
2016,07,04,01,46,8.00
2016,07,04,01,47,9.60
2016,07,04,01,48,10.20
2016,07,04,01,49,10.20
2016,07,04,01,50,6.00
2016,07,04,01,51,9.40
2016,07,04,01,52,9.10
2016,07,04,01,53,11.80
2016,07,04,01,54,9.80
2016,07,04,01,55,7.50
2016,07,04,01,56,10.10
2016,07,04,01,57,11.10
2016,07,04,01,58,8.00
2016,07,04,01,59,5.20
2016,07,04,02,00,5.80
2016,07,04,02,01,7.00
2016,07,04,02,02,7.40
2016,07,04,02,03,8.20
2016,07,04,02,04,9.60
2016,07,04,02,05,7.10
2016,07,04,02,06,7.80
2016,07,04,02,07,9.40
2016,07,04,02,08,5.90
2016,07,04,02,09,7.50
2016,07,04,02,10,5.80
2016,07,04,02,11,5.70
2016,07,04,02,12,6.60
2016,07,04,02,13,3.70
2016,07,04,02,14,5.80
2016,07,04,02,15,8.70
2016,07,04,02,16,8.10
2016,07,04,02,17,4.20
2016,07,04,02,18,9.50
2016,07,04,02,19,7.30
2016,07,04,02,20,6.10
2016,07,04,02,21,5.70
2016,07,04,02,22,8.80
2016,07,04,02,23,10.80
2016,07,04,02,24,7.00
2016,07,04,02,25,5.60
2016,07,04,02,26,7.40
2016,07,04,02,27,8.40
2016,07,04,02,28,7.20
2016,07,04,02,29,9.20
2016,07,04,02,30,8.20
2016,07,04,02,31,8.50
2016,07,04,02,32,7.10
2016,07,04,02,33,7.10
2016,07,04,02,34,9.40
2016,07,04,02,35,5.80
2016,07,04,02,36,6.10
2016,07,04,02,37,8.20
2016,07,04,02,38,8.40
2016,07,04,02,39,10.30
2016,07,04,02,40,10.60
2016,07,04,02,41,10.60
2016,07,04,02,42,8.50
2016,07,04,02,43,10.40
2016,07,04,02,44,5.30
2016,07,04,02,45,4.60
2016,07,04,02,46,8.60
2016,07,04,02,47,10.20
2016,07,04,02,48,8.20
2016,07,04,02,49,10.30
2016,07,04,02,50,7.60
2016,07,04,02,51,10.70
2016,07,04,02,52,8.70
2016,07,04,02,53,7.80
2016,07,04,02,54,8.00
2016,07,04,02,55,7.50
2016,07,04,02,56,8.60
2016,07,04,02,57,14.60
2016,07,04,02,58,12.10
2016,07,04,02,59,7.80
2016,07,04,03,00,9.00
2016,07,04,03,01,13.60
2016,07,04,03,02,10.20
2016,07,04,03,03,10.80
2016,07,04,03,04,7.20
2016,07,04,03,05,9.60
2016,07,04,03,06,11.10
2016,07,04,03,07,6.10
2016,07,04,03,08,7.00
2016,07,04,03,09,8.90
2016,07,04,03,10,9.70
2016,07,04,03,11,8.10
2016,07,04,03,12,8.90
2016,07,04,03,13,12.30
2016,07,04,03,14,7.80
2016,07,04,03,15,6.70
2016,07,04,03,16,10.50
2016,07,04,03,17,8.30
2016,07,04,03,18,6.80
2016,07,04,03,19,7.10
2016,07,04,03,20,7.50
2016,07,04,03,21,6.80
2016,07,04,03,22,8.80
2016,07,04,03,23,8.20
2016,07,04,03,24,9.90
2016,07,04,03,25,6.60
2016,07,04,03,26,5.20
2016,07,04,03,27,10.80
2016,07,04,03,28,7.60
2016,07,04,03,29,4.20
2016,07,04,03,30,5.00
2016,07,04,03,31,5.90
2016,07,04,03,32,6.10
2016,07,04,03,33,5.60
2016,07,04,03,34,7.50
2016,07,04,03,35,5.00
2016,07,04,03,36,5.30
2016,07,04,03,37,8.90
2016,07,04,03,38,8.90
2016,07,04,03,39,8.30
2016,07,04,03,40,5.20
2016,07,04,03,41,10.20
2016,07,04,03,42,8.60
2016,07,04,03,43,7.20
2016,07,04,03,44,10.70
2016,07,04,03,45,7.50
2016,07,04,03,46,10.20
2016,07,04,03,47,7.80
2016,07,04,03,48,6.40
2016,07,04,03,49,8.00
2016,07,04,03,50,10.30
2016,07,04,03,51,6.90
2016,07,04,03,52,7.30
2016,07,04,03,53,9.20
2016,07,04,03,54,8.40
2016,07,04,03,55,5.60
2016,07,04,03,56,6.00
2016,07,04,03,57,7.60
2016,07,04,03,58,11.10
2016,07,04,03,59,6.90
2016,07,04,04,00,10.50
2016,07,04,04,01,8.90
2016,07,04,04,02,4.90
2016,07,04,04,03,5.60
2016,07,04,04,04,7.20
2016,07,04,04,05,5.70
2016,07,04,04,06,6.80
2016,07,04,04,07,7.70
2016,07,04,04,08,5.30
2016,07,04,04,09,8.30
2016,07,04,04,10,10.80
2016,07,04,04,11,7.70
2016,07,04,04,12,8.80
2016,07,04,04,13,9.70
2016,07,04,04,14,10.00
2016,07,04,04,15,6.10
2016,07,04,04,16,6.00
2016,07,04,04,17,7.00
2016,07,04,04,18,7.00
2016,07,04,04,19,9.50
2016,07,04,04,20,6.50
2016,07,04,04,21,9.30
2016,07,04,04,22,7.60
2016,07,04,04,23,9.20
2016,07,04,04,24,9.90
2016,07,04,04,25,9.70
2016,07,04,04,26,10.10
2016,07,04,04,27,10.60
2016,07,04,04,28,9.60
2016,07,04,04,29,8.60
2016,07,04,04,30,9.80
2016,07,04,04,31,8.00
2016,07,04,04,32,7.80
2016,07,04,04,33,9.00
2016,07,04,04,34,9.40
2016,07,04,04,35,7.80
2016,07,04,04,36,7.40
2016,07,04,04,37,8.30
2016,07,04,04,38,11.00
2016,07,04,04,39,8.00
2016,07,04,04,40,9.70
2016,07,04,04,41,6.60
2016,07,04,04,42,7.20
2016,07,04,04,43,4.70
2016,07,04,04,44,5.50
2016,07,04,04,45,7.40
2016,07,04,04,46,8.00
2016,07,04,04,47,7.10
2016,07,04,04,48,7.80
2016,07,04,04,49,10.00
2016,07,04,04,50,7.70
2016,07,04,04,51,8.90
2016,07,04,04,52,8.90
2016,07,04,04,53,9.70
2016,07,04,04,54,6.00
2016,07,04,04,55,5.10
2016,07,04,04,56,7.00
2016,07,04,04,57,8.90
2016,07,04,04,58,6.70
2016,07,04,04,59,5.70
2016,07,04,05,00,7.70
2016,07,04,05,01,6.70
2016,07,04,05,02,5.10
2016,07,04,05,03,5.30
2016,07,04,05,04,6.40
2016,07,04,05,05,5.90
2016,07,04,05,06,5.90
2016,07,04,05,07,5.50
2016,07,04,05,08,7.60
2016,07,04,05,09,5.80
2016,07,04,05,10,4.10
2016,07,04,05,11,4.50
2016,07,04,05,12,5.60
2016,07,04,05,13,5.60
2016,07,04,05,14,3.50
2016,07,04,05,15,6.40
2016,07,04,05,16,3.70
2016,07,04,05,17,4.00
2016,07,04,05,18,4.10
2016,07,04,05,19,4.80
2016,07,04,05,20,4.40
2016,07,04,05,21,3.50
2016,07,04,05,22,3.90
2016,07,04,05,23,4.90
2016,07,04,05,24,6.40
2016,07,04,05,25,4.90
2016,07,04,05,26,7.20
2016,07,04,05,27,8.40
2016,07,04,05,28,7.60
2016,07,04,05,29,6.50
2016,07,04,05,30,6.00
2016,07,04,05,31,5.40
2016,07,04,05,32,5.10
2016,07,04,05,33,4.50
2016,07,04,05,34,5.20
2016,07,04,05,35,5.60
2016,07,04,05,36,3.70
2016,07,04,05,37,8.50
2016,07,04,05,38,9.00
2016,07,04,05,39,7.80
2016,07,04,05,40,6.90
2016,07,04,05,41,4.70
2016,07,04,05,42,5.60
2016,07,04,05,43,7.10
2016,07,04,05,44,8.10
2016,07,04,05,45,7.60
2016,07,04,05,46,6.40
2016,07,04,05,47,5.30
2016,07,04,05,48,5.10
2016,07,04,05,49,4.40
2016,07,04,05,50,4.70
2016,07,04,05,51,5.60
2016,07,04,05,52,6.60
2016,07,04,05,53,6.10
2016,07,04,05,54,7.90
2016,07,04,05,55,6.10
2016,07,04,05,56,6.60
2016,07,04,05,57,7.00
2016,07,04,05,58,5.10
2016,07,04,05,59,7.80
2016,07,04,06,00,5.90
2016,07,04,06,01,6.40
2016,07,04,06,02,7.30
2016,07,04,06,03,4.50
2016,07,04,06,04,4.40
2016,07,04,06,05,3.20
2016,07,04,06,06,2.60
2016,07,04,06,07,4.10
2016,07,04,06,08,5.90
2016,07,04,06,09,5.70
2016,07,04,06,10,4.50
2016,07,04,06,11,7.80
2016,07,04,06,12,8.20
2016,07,04,06,13,7.70
2016,07,04,06,14,7.00
2016,07,04,06,15,6.30
2016,07,04,06,16,5.60
2016,07,04,06,17,4.40
2016,07,04,06,18,7.80
2016,07,04,06,19,10.00
2016,07,04,06,20,6.80
2016,07,04,06,21,6.40
2016,07,04,06,22,6.40
2016,07,04,06,23,3.10
2016,07,04,06,24,8.10
2016,07,04,06,25,8.10
2016,07,04,06,26,8.80
2016,07,04,06,27,9.60
2016,07,04,06,28,9.90
2016,07,04,06,29,7.10
2016,07,04,06,30,4.30
2016,07,04,06,31,7.00
2016,07,04,06,32,10.00
2016,07,04,06,33,9.70
2016,07,04,06,34,9.70
2016,07,04,06,35,8.60
2016,07,04,06,36,10.80
2016,07,04,06,37,9.90
2016,07,04,06,38,9.10
2016,07,04,06,39,8.70
2016,07,04,06,40,10.40
2016,07,04,06,41,9.20
2016,07,04,06,42,13.10
2016,07,04,06,43,8.00
2016,07,04,06,44,12.40
2016,07,04,06,45,12.20
2016,07,04,06,46,14.20
2016,07,04,06,47,11.30
2016,07,04,06,48,7.20
2016,07,04,06,49,5.50
2016,07,04,06,50,8.60
2016,07,04,06,51,11.10
2016,07,04,06,52,6.50
2016,07,04,06,53,5.30
2016,07,04,06,54,3.10
2016,07,04,06,55,4.80
2016,07,04,06,56,10.50
2016,07,04,06,57,8.90
2016,07,04,06,58,7.40
2016,07,04,06,59,8.70
2016,07,04,07,00,12.80
2016,07,04,07,01,7.90
2016,07,04,07,02,7.50
2016,07,04,07,03,14.00
2016,07,04,07,04,13.40
2016,07,04,07,05,11.70
2016,07,04,07,06,8.00
2016,07,04,07,07,8.10
2016,07,04,07,08,6.00
2016,07,04,07,09,9.10
2016,07,04,07,10,10.20
2016,07,04,07,11,7.70
2016,07,04,07,12,5.40
2016,07,04,07,13,11.20
2016,07,04,07,14,10.20
2016,07,04,07,15,10.10
2016,07,04,07,16,10.20
2016,07,04,07,17,6.40
2016,07,04,07,18,8.00
2016,07,04,07,19,8.10
2016,07,04,07,20,7.80
2016,07,04,07,21,8.40
2016,07,04,07,22,7.00
2016,07,04,07,23,4.60
2016,07,04,07,24,8.10
2016,07,04,07,25,6.40
2016,07,04,07,26,8.40
2016,07,04,07,27,11.60
2016,07,04,07,28,8.70
2016,07,04,07,29,5.70
2016,07,04,07,30,8.70
2016,07,04,07,31,6.70
2016,07,04,07,32,6.40
2016,07,04,07,33,6.60
2016,07,04,07,34,9.10
2016,07,04,07,35,8.10
2016,07,04,07,36,7.50
2016,07,04,07,37,11.60
2016,07,04,07,38,11.60
2016,07,04,07,39,11.30
2016,07,04,07,40,8.20
2016,07,04,07,41,11.20
2016,07,04,07,42,11.00
2016,07,04,07,43,9.70
2016,07,04,07,44,10.20
2016,07,04,07,45,10.20
2016,07,04,07,46,9.40
2016,07,04,07,47,9.00
2016,07,04,07,48,6.70
2016,07,04,07,49,11.10
2016,07,04,07,50,9.10
2016,07,04,07,51,9.20
2016,07,04,07,52,9.50
2016,07,04,07,53,6.50
2016,07,04,07,54,10.40
2016,07,04,07,55,8.90
2016,07,04,07,56,11.00
2016,07,04,07,57,9.10
2016,07,04,07,58,9.30
2016,07,04,07,59,11.40
2016,07,04,08,00,12.10
2016,07,04,08,01,11.30
2016,07,04,08,02,7.60
2016,07,04,08,03,11.20
2016,07,04,08,04,11.50
2016,07,04,08,05,8.60
2016,07,04,08,06,8.60
2016,07,04,08,07,8.40
2016,07,04,08,08,7.00
2016,07,04,08,09,6.40
2016,07,04,08,10,10.60
2016,07,04,08,11,8.20
2016,07,04,08,12,7.80
2016,07,04,08,13,10.80
2016,07,04,08,14,11.60
2016,07,04,08,15,11.30
2016,07,04,08,16,12.20
2016,07,04,08,17,11.30
2016,07,04,08,18,10.80
2016,07,04,08,19,13.60
2016,07,04,08,20,11.90
2016,07,04,08,21,10.60
2016,07,04,08,22,10.00
2016,07,04,08,23,10.40
2016,07,04,08,24,9.50
2016,07,04,08,25,11.20
2016,07,04,08,26,6.90
2016,07,04,08,27,12.60
2016,07,04,08,28,10.20
2016,07,04,08,29,9.80
2016,07,04,08,30,10.00
2016,07,04,08,31,15.40
2016,07,04,08,32,12.00
2016,07,04,08,33,10.50
2016,07,04,08,34,10.20
2016,07,04,08,35,12.00
2016,07,04,08,36,10.90
2016,07,04,08,37,10.60
2016,07,04,08,38,11.00
2016,07,04,08,39,8.70
2016,07,04,08,40,11.10
2016,07,04,08,41,11.90
2016,07,04,08,42,11.90
2016,07,04,08,43,10.50
2016,07,04,08,44,12.10
2016,07,04,08,45,10.30
2016,07,04,08,46,9.70
2016,07,04,08,47,8.00
2016,07,04,08,48,9.50
2016,07,04,08,49,8.10
2016,07,04,08,50,10.00
2016,07,04,08,51,11.90
2016,07,04,08,52,10.40
2016,07,04,08,53,12.30
2016,07,04,08,54,15.50
2016,07,04,08,55,11.10
2016,07,04,08,56,12.60
2016,07,04,08,57,10.00
2016,07,04,08,58,11.90
2016,07,04,08,59,14.60
2016,07,04,09,00,13.60
2016,07,04,09,01,10.80
2016,07,04,09,02,10.00
2016,07,04,09,03,9.70
2016,07,04,09,04,9.90
2016,07,04,09,05,12.10
2016,07,04,09,06,7.80
2016,07,04,09,07,12.30
2016,07,04,09,08,11.50
2016,07,04,09,09,10.70
2016,07,04,09,10,7.50
2016,07,04,09,11,10.20
2016,07,04,09,12,12.30
2016,07,04,09,13,8.10
2016,07,04,09,14,13.00
2016,07,04,09,15,10.50
2016,07,04,09,16,13.80
2016,07,04,09,17,15.70
2016,07,04,09,18,9.20
2016,07,04,09,19,15.90
2016,07,04,09,20,15.30
2016,07,04,09,21,18.40
2016,07,04,09,22,15.70
2016,07,04,09,23,17.60
2016,07,04,09,24,13.10
2016,07,04,09,25,13.70
2016,07,04,09,26,11.30
2016,07,04,09,27,13.20
2016,07,04,09,28,13.00
2016,07,04,09,29,15.90
2016,07,04,09,30,11.80
2016,07,04,09,31,13.60
2016,07,04,09,32,11.20
2016,07,04,09,33,18.10
2016,07,04,09,34,13.00
2016,07,04,09,35,13.50
2016,07,04,09,36,10.20
2016,07,04,09,37,16.50
2016,07,04,09,38,14.20
2016,07,04,09,39,15.80
2016,07,04,09,40,15.40
2016,07,04,09,41,12.20
2016,07,04,09,42,11.70
2016,07,04,09,43,14.10
2016,07,04,09,44,13.40
2016,07,04,09,45,17.70
2016,07,04,09,46,14.30
2016,07,04,09,47,16.50
2016,07,04,09,48,10.70
2016,07,04,09,49,12.10
2016,07,04,09,50,7.10
2016,07,04,09,51,9.40
2016,07,04,09,52,9.00
2016,07,04,09,53,11.80
2016,07,04,09,54,8.70
2016,07,04,09,55,10.60
2016,07,04,09,56,12.80
2016,07,04,09,57,7.20
2016,07,04,09,58,16.20
2016,07,04,09,59,14.30
2016,07,04,10,00,18.00
2016,07,04,10,01,16.10
2016,07,04,10,02,16.70
2016,07,04,10,03,11.80
2016,07,04,10,04,15.90
2016,07,04,10,05,14.60
2016,07,04,10,06,18.00
2016,07,04,10,07,14.60
2016,07,04,10,08,15.00
2016,07,04,10,09,14.80
2016,07,04,10,10,15.70
2016,07,04,10,11,15.90
2016,07,04,10,12,22.60
2016,07,04,10,13,18.40
2016,07,04,10,14,14.70
2016,07,04,10,15,10.60
2016,07,04,10,16,11.10
2016,07,04,10,17,17.90
2016,07,04,10,18,12.00
2016,07,04,10,19,20.60
2016,07,04,10,20,16.00
2016,07,04,10,21,16.30
2016,07,04,10,22,17.30
2016,07,04,10,23,20.30
2016,07,04,10,24,16.60
2016,07,04,10,25,19.30
2016,07,04,10,26,18.00
2016,07,04,10,27,17.80
2016,07,04,10,28,19.50
2016,07,04,10,29,15.10
2016,07,04,10,30,14.80
2016,07,04,10,31,14.00
2016,07,04,10,32,18.70
2016,07,04,10,33,14.20
2016,07,04,10,34,16.80
2016,07,04,10,35,13.00
2016,07,04,10,36,16.60
2016,07,04,10,37,19.30
2016,07,04,10,38,17.80
2016,07,04,10,39,14.90
2016,07,04,10,40,14.40
2016,07,04,10,41,15.40
2016,07,04,10,42,13.30
2016,07,04,10,43,17.10
2016,07,04,10,44,11.20
2016,07,04,10,45,10.50
2016,07,04,10,46,16.70
2016,07,04,10,47,20.30
2016,07,04,10,48,16.60
2016,07,04,10,49,8.90
2016,07,04,10,50,11.70
2016,07,04,10,51,17.50
2016,07,04,10,52,14.80
2016,07,04,10,53,14.00
2016,07,04,10,54,16.80
2016,07,04,10,55,14.10
2016,07,04,10,56,14.60
2016,07,04,10,57,21.40
2016,07,04,10,58,15.60
2016,07,04,10,59,13.30
2016,07,04,11,00,13.60
2016,07,04,11,01,14.80
2016,07,04,11,02,15.20
2016,07,04,11,03,15.10
2016,07,04,11,04,17.70
2016,07,04,11,05,13.80
2016,07,04,11,06,16.10
2016,07,04,11,07,14.60
2016,07,04,11,08,17.80
2016,07,04,11,09,17.90
2016,07,04,11,10,12.00
2016,07,04,11,11,18.70
2016,07,04,11,12,13.10
2016,07,04,11,13,17.90
2016,07,04,11,14,19.10
2016,07,04,11,15,23.30
2016,07,04,11,16,19.20
2016,07,04,11,17,20.70
2016,07,04,11,18,20.60
2016,07,04,11,19,21.40
2016,07,04,11,20,17.80
2016,07,04,11,21,13.60
2016,07,04,11,22,13.00
2016,07,04,11,23,20.50
2016,07,04,11,24,20.80
2016,07,04,11,25,12.70
2016,07,04,11,26,16.10
2016,07,04,11,27,16.40
2016,07,04,11,28,13.80
2016,07,04,11,29,20.60
2016,07,04,11,30,17.20
2016,07,04,11,31,18.60
2016,07,04,11,32,23.80
2016,07,04,11,33,17.10
2016,07,04,11,34,18.40
2016,07,04,11,35,21.70
2016,07,04,11,36,13.20
2016,07,04,11,37,20.90
2016,07,04,11,38,17.60
2016,07,04,11,39,17.20
2016,07,04,11,40,14.60
2016,07,04,11,41,11.00
2016,07,04,11,42,19.50
2016,07,04,11,43,16.70
2016,07,04,11,44,12.10
2016,07,04,11,45,16.00
2016,07,04,11,46,16.10
2016,07,04,11,47,17.40
2016,07,04,11,48,15.00
2016,07,04,11,49,12.30
2016,07,04,11,50,13.80
2016,07,04,11,51,12.50
2016,07,04,11,52,12.50
2016,07,04,11,53,12.60
2016,07,04,11,54,12.60
2016,07,04,11,55,19.30
2016,07,04,11,56,12.70
2016,07,04,11,57,15.90
2016,07,04,11,58,19.50
2016,07,04,11,59,21.30
2016,07,04,12,00,16.40
2016,07,04,12,01,18.20
2016,07,04,12,02,15.90
2016,07,04,12,03,14.60
2016,07,04,12,04,14.90
2016,07,04,12,05,17.60
2016,07,04,12,06,19.10
2016,07,04,12,07,14.70
2016,07,04,12,08,12.70
2016,07,04,12,09,13.50
2016,07,04,12,10,12.20
2016,07,04,12,11,13.60
2016,07,04,12,12,21.00
2016,07,04,12,13,13.10
2016,07,04,12,14,17.20
2016,07,04,12,15,20.00
2016,07,04,12,16,18.10
2016,07,04,12,17,18.90
2016,07,04,12,18,21.10
2016,07,04,12,19,12.50
2016,07,04,12,20,15.90
2016,07,04,12,21,17.50
2016,07,04,12,22,21.90
2016,07,04,12,23,25.00
2016,07,04,12,24,22.30
2016,07,04,12,25,19.80
2016,07,04,12,26,16.50
2016,07,04,12,27,19.00
2016,07,04,12,28,17.70
2016,07,04,12,29,13.40
2016,07,04,12,30,15.90
2016,07,04,12,31,16.30
2016,07,04,12,32,20.40
2016,07,04,12,33,19.00
2016,07,04,12,34,19.70
2016,07,04,12,35,19.20
2016,07,04,12,36,17.80
2016,07,04,12,37,15.70
2016,07,04,12,38,15.90
2016,07,04,12,39,20.50
2016,07,04,12,40,17.30
2016,07,04,12,41,22.00
2016,07,04,12,42,17.80
2016,07,04,12,43,21.80
2016,07,04,12,44,16.90
2016,07,04,12,45,17.60
2016,07,04,12,46,20.40
2016,07,04,12,47,17.00
2016,07,04,12,48,22.50
2016,07,04,12,49,16.50
2016,07,04,12,50,13.10
2016,07,04,12,51,20.30
2016,07,04,12,52,14.70
2016,07,04,12,53,13.20
2016,07,04,12,54,16.50
2016,07,04,12,55,23.00
2016,07,04,12,56,20.10
2016,07,04,12,57,15.90
2016,07,04,12,58,21.00
2016,07,04,12,59,19.50
2016,07,04,13,00,14.10
2016,07,04,13,01,13.30
2016,07,04,13,02,12.60
2016,07,04,13,03,23.00
2016,07,04,13,04,15.80
2016,07,04,13,05,14.10
2016,07,04,13,06,23.60
2016,07,04,13,07,21.50
2016,07,04,13,08,15.90
2016,07,04,13,09,22.50
2016,07,04,13,10,16.00
2016,07,04,13,11,16.60
2016,07,04,13,12,15.40
2016,07,04,13,13,10.30
2016,07,04,13,14,16.50
2016,07,04,13,15,13.50
2016,07,04,13,16,18.20
2016,07,04,13,17,13.70
2016,07,04,13,18,20.30
2016,07,04,13,19,13.60
2016,07,04,13,20,16.60
2016,07,04,13,21,18.60
2016,07,04,13,22,18.70
2016,07,04,13,23,16.70
2016,07,04,13,24,19.50
2016,07,04,13,25,15.90
2016,07,04,13,26,16.60
2016,07,04,13,27,20.50
2016,07,04,13,28,15.40
2016,07,04,13,29,12.60
2016,07,04,13,30,17.80
2016,07,04,13,31,19.50
2016,07,04,13,32,17.00
2016,07,04,13,33,13.60
2016,07,04,13,34,14.20
2016,07,04,13,35,12.10
2016,07,04,13,36,17.30
2016,07,04,13,37,26.00
2016,07,04,13,38,22.60
2016,07,04,13,39,14.40
2016,07,04,13,40,15.10
2016,07,04,13,41,19.40
2016,07,04,13,42,18.40
2016,07,04,13,43,15.90
2016,07,04,13,44,14.60
2016,07,04,13,45,18.30
2016,07,04,13,46,15.40
2016,07,04,13,47,15.60
2016,07,04,13,48,18.50
2016,07,04,13,49,15.60
2016,07,04,13,50,16.20
2016,07,04,13,51,16.20
2016,07,04,13,52,19.10
2016,07,04,13,53,13.80
2016,07,04,13,54,15.50
2016,07,04,13,55,17.60
2016,07,04,13,56,22.60
2016,07,04,13,57,20.20
2016,07,04,13,58,23.80
2016,07,04,13,59,23.90
2016,07,04,14,00,19.80
2016,07,04,14,01,16.80
2016,07,04,14,02,19.60
2016,07,04,14,03,18.90
2016,07,04,14,04,24.80
2016,07,04,14,05,22.10
2016,07,04,14,06,19.60
2016,07,04,14,07,24.10
2016,07,04,14,08,25.60
2016,07,04,14,09,27.50
2016,07,04,14,10,18.80
2016,07,04,14,11,20.20
2016,07,04,14,12,20.90
2016,07,04,14,13,20.00
2016,07,04,14,14,20.90
2016,07,04,14,15,21.60
2016,07,04,14,16,15.90
2016,07,04,14,17,12.80
2016,07,04,14,18,14.70
2016,07,04,14,19,17.80
2016,07,04,14,20,20.10
2016,07,04,14,21,24.00
2016,07,04,14,22,14.00
2016,07,04,14,23,18.80
2016,07,04,14,24,20.60
2016,07,04,14,25,25.30
2016,07,04,14,26,27.00
2016,07,04,14,27,22.70
2016,07,04,14,28,24.40
2016,07,04,14,29,17.80
2016,07,04,14,30,23.70
2016,07,04,14,31,20.20
2016,07,04,14,32,12.70
2016,07,04,14,33,19.50
2016,07,04,14,34,25.10
2016,07,04,14,35,22.50
2016,07,04,14,36,28.60
2016,07,04,14,37,18.90
2016,07,04,14,38,26.10
2016,07,04,14,39,34.60
2016,07,04,14,40,25.60
2016,07,04,14,41,22.20
2016,07,04,14,42,26.00
2016,07,04,14,43,27.00
2016,07,04,14,44,29.80
2016,07,04,14,45,19.80
2016,07,04,14,46,18.70
2016,07,04,14,47,21.60
2016,07,04,14,48,16.20
2016,07,04,14,49,21.90
2016,07,04,14,50,25.20
2016,07,04,14,51,20.60
2016,07,04,14,52,23.00
2016,07,04,14,53,27.90
2016,07,04,14,54,25.50
2016,07,04,14,55,21.40
2016,07,04,14,56,22.50
2016,07,04,14,57,27.00
2016,07,04,14,58,18.20
2016,07,04,14,59,24.80
2016,07,04,15,00,20.50
2016,07,04,15,01,24.80
2016,07,04,15,02,25.00
2016,07,04,15,03,22.40
2016,07,04,15,04,27.20
2016,07,04,15,05,21.40
2016,07,04,15,06,17.10
2016,07,04,15,07,16.60
2016,07,04,15,08,20.70
2016,07,04,15,09,23.90
2016,07,04,15,10,24.90
2016,07,04,15,11,20.00
2016,07,04,15,12,14.60
2016,07,04,15,13,19.00
2016,07,04,15,14,22.00
2016,07,04,15,15,18.60
2016,07,04,15,16,24.40
2016,07,04,15,17,23.80
2016,07,04,15,18,16.40
2016,07,04,15,19,13.50
2016,07,04,15,20,25.00
2016,07,04,15,21,25.50
2016,07,04,15,22,27.90
2016,07,04,15,23,20.00
2016,07,04,15,24,21.10
2016,07,04,15,25,18.10
2016,07,04,15,26,20.50
2016,07,04,15,27,20.60
2016,07,04,15,28,23.30
2016,07,04,15,29,23.10
2016,07,04,15,30,26.10
2016,07,04,15,31,26.60
2016,07,04,15,32,19.40
2016,07,04,15,33,14.50
2016,07,04,15,34,21.20
2016,07,04,15,35,18.90
2016,07,04,15,36,25.50
2016,07,04,15,37,28.50
2016,07,04,15,38,26.60
2016,07,04,15,39,18.50
2016,07,04,15,40,22.40
2016,07,04,15,41,25.20
2016,07,04,15,42,18.70
2016,07,04,15,43,24.90
2016,07,04,15,44,22.10
2016,07,04,15,45,21.10
2016,07,04,15,46,22.30
2016,07,04,15,47,23.90
2016,07,04,15,48,20.80
2016,07,04,15,49,19.50
2016,07,04,15,50,23.40
2016,07,04,15,51,22.30
2016,07,04,15,52,17.20
2016,07,04,15,53,21.10
2016,07,04,15,54,24.60
2016,07,04,15,55,17.40
2016,07,04,15,56,18.90
2016,07,04,15,57,20.50
2016,07,04,15,58,12.80
2016,07,04,15,59,10.80
2016,07,04,16,00,17.10
2016,07,04,16,01,16.40
2016,07,04,16,02,15.10
2016,07,04,16,03,20.00
2016,07,04,16,04,21.00
2016,07,04,16,05,18.40
2016,07,04,16,06,21.30
2016,07,04,16,07,27.20
2016,07,04,16,08,22.20
2016,07,04,16,09,17.90
2016,07,04,16,10,18.50
2016,07,04,16,11,12.00
2016,07,04,16,12,14.50
2016,07,04,16,13,23.10
2016,07,04,16,14,24.30
2016,07,04,16,15,19.10
2016,07,04,16,16,19.00
2016,07,04,16,17,17.80
2016,07,04,16,18,14.60
2016,07,04,16,19,16.30
2016,07,04,16,20,16.30
2016,07,04,16,21,16.50
2016,07,04,16,22,22.20
2016,07,04,16,23,23.30
2016,07,04,16,24,19.60
2016,07,04,16,25,16.10
2016,07,04,16,26,16.50
2016,07,04,16,27,15.10
2016,07,04,16,28,13.60
2016,07,04,16,29,15.00
2016,07,04,16,30,20.60
2016,07,04,16,31,26.90
2016,07,04,16,32,20.40
2016,07,04,16,33,14.40
2016,07,04,16,34,27.10
2016,07,04,16,35,25.50
2016,07,04,16,36,17.40
2016,07,04,16,37,20.60
2016,07,04,16,38,15.30
2016,07,04,16,39,19.50
2016,07,04,16,40,14.90
2016,07,04,16,41,12.90
2016,07,04,16,42,21.00
2016,07,04,16,43,21.90
2016,07,04,16,44,26.00
2016,07,04,16,45,22.20
2016,07,04,16,46,21.50
2016,07,04,16,47,25.50
2016,07,04,16,48,25.00
2016,07,04,16,49,23.80
2016,07,04,16,50,27.00
2016,07,04,16,51,24.90
2016,07,04,16,52,21.70
2016,07,04,16,53,15.90
2016,07,04,16,54,19.60
2016,07,04,16,55,16.50
2016,07,04,16,56,21.90
2016,07,04,16,57,23.50
2016,07,04,16,58,25.60
2016,07,04,16,59,24.60
2016,07,04,17,00,23.60
2016,07,04,17,01,23.00
2016,07,04,17,02,26.80
2016,07,04,17,03,24.40
2016,07,04,17,04,20.70
2016,07,04,17,05,24.10
2016,07,04,17,06,21.90
2016,07,04,17,07,17.60
2016,07,04,17,08,12.50
2016,07,04,17,09,18.30
2016,07,04,17,10,14.80
2016,07,04,17,11,25.30
2016,07,04,17,12,18.90
2016,07,04,17,13,17.50
2016,07,04,17,14,24.40
2016,07,04,17,15,20.20
2016,07,04,17,16,23.90
2016,07,04,17,17,24.50
2016,07,04,17,18,27.10
2016,07,04,17,19,22.70
2016,07,04,17,20,22.50
2016,07,04,17,21,24.40
2016,07,04,17,22,19.50
2016,07,04,17,23,21.20
2016,07,04,17,24,18.40
2016,07,04,17,25,19.30
2016,07,04,17,26,21.50
2016,07,04,17,27,21.90
2016,07,04,17,28,20.20
2016,07,04,17,29,20.80
2016,07,04,17,30,23.00
2016,07,04,17,31,20.60
2016,07,04,17,32,12.80
2016,07,04,17,33,18.60
2016,07,04,17,34,13.00
2016,07,04,17,35,9.70
2016,07,04,17,36,13.10
2016,07,04,17,37,16.50